Regional Weather Roundup
Issued by NWS

Home | Current Version | Previous Version | Graphics & Text | Print | Product List | Glossary On
Versions: 1 2 3 4 5 6 7 8 9 10 11 12 13 14 15 16 17 18 19 20 21 22 23 24 25 26 27 28 29 30 31 32 33 34 35 36 37 38 39 40 41 42 43 44 45 46 47 48 49 50
000
ASUS43 KBIS 010102
RWRND

NORTH DAKOTA REGIONAL WEATHER ROUNDUP
NATIONAL WEATHER SERVICE BISMARCK ND
800 PM CDT MON AUG 31 2015

NOTE: "FAIR" INDICATES FEW OR NO CLOUDS BELOW 12,000 FEET WITH NO
SIGNIFICANT WEATHER AND/OR OBSTRUCTIONS TO VISIBILITY.


NDZ001>003-009>011-017-010200-
NORTHWEST NORTH DAKOTA

CITY           SKY/WX    TMP DP  RH WIND       PRES   REMARKS
WILLISTON      CLEAR     75  36  24 W9        29.84S
MINOT          CLEAR     73  40  30 W6        29.83S
MINOT AFB      CLEAR     75  42  30 SW8       29.82R HAZE
$$

NDZ018>021-031>035-040>046-010200-
SOUTHWEST NORTH DAKOTA

CITY           SKY/WX    TMP DP  RH WIND       PRES   REMARKS
BISMARCK       CLEAR     78  44  29 NW5       29.87S
DICKINSON      CLEAR     73  43  33 W3        29.88F
GARRISON         N/A     71  47  42 SW3       29.86F
HETTINGER ARPT CLEAR     74  44  34 S3        29.92S
$$

NDZ004>008-012>016-024-026-027-054-010200-
NORTHEAST NORTH DAKOTA

CITY           SKY/WX    TMP DP  RH WIND       PRES   REMARKS
GRAND FORKS    CLOUDY    71  60  68 SW5       29.80F
GRND FRKS AFB  CLOUDY    72  60  65 SW5       29.81F
DEVILS LAKE    PTCLDY    72  46  40 W7        29.83S
$$

NDZ022-023-025-028>030-036>039-047>053-010200-
SOUTHEAST NORTH DAKOTA

CITY           SKY/WX    TMP DP  RH WIND       PRES   REMARKS
FARGO          CLOUDY    77  66  68 S6        29.82S
JAMESTOWN      CLOUDY    71  57  61 S5        29.85F
$$




USA.gov is the U.S. government's official web portal to all federal, state and local government web resources and services.